K0FJ-1 Weather Reports


Display with metric or nautical units.
time (UTC)temp
F
wind
direction
speed
MPH
gust
MPH
rain 1hr
in
rain 24hr
in
rain mn
in
humidity
%
barometer
mb
20260831092503 67 165 0.0 2.0 0.05 0.13 0.13 92 1017.3
20260831092003 67 165 0.0 2.0 0.06 0.13 0.13 92 1017.3
20260831091503 67 177 1.0 4.0 0.05 0.12 0.12 91 1017.7
20260831091003 67 185 2.0 6.0 0.06 0.12 0.12 91 1017.8
20260831090503 67 186 2.0 6.0 0.06 0.12 0.12 90 1017.9
20260831090003 68 181 2.0 7.0 0.05 0.11 0.11 91 1017.5
20260831085503 68 183 1.0 7.0 0.04 0.10 0.10 91 1017.2
20260831085003 68 178 1.0 6.0 0.03 0.09 0.09 90 1017.2
20260831084503 68 178 2.0 6.0 0.04 0.09 0.09 89 1017.2
20260831084003 68 175 1.0 5.0 0.03 0.08 0.08 88 1017.3
20260831083503 68 165 1.0 5.0 0.03 0.08 0.08 88 1017.0
20260831083003 68 166 1.0 5.0 0.04 0.08 0.08 89 1016.9
20260831082503 68 139 1.0 8.0 0.04 0.08 0.08 89 1016.9
20260831082003 68 153 2.0 11.0 0.03 0.07 0.07 89 1017.0
20260831081503 68 159 3.0 11.0 0.03 0.07 0.07 89 1017.6
20260831081003 68 141 2.0 9.0 0.02 0.06 0.06 89 1018.1
20260831080503 69 135 2.0 7.0 0.02 0.06 0.06 88 1017.5
20260831080003 69 142 2.0 7.0 0.02 0.06 0.06 88 1017.7
20260831075503 69 157 3.0 12.0 0.02 0.06 0.06 87 1017.6
20260831075003 69 170 5.0 12.0 0.02 0.06 0.06 86 1017.8
20260831074503 70 177 6.0 15.0 0.01 0.05 0.05 84 1018.0
20260831074003 70 178 7.0 15.0 0.01 0.05 0.05 82 1018.1
20260831073503 71 176 6.0 16.0 0.02 0.05 0.05 80 1017.9
20260831073003 71 169 4.0 16.0 0.01 0.04 0.04 79 1018.0
20260831072503 71 144 1.0 5.0 0.02 0.04 0.04 79 1017.7
20260831072003 71 159 2.0 9.0 0.02 0.04 0.04 80 1017.8
20260831071503 71 167 2.0 9.0 0.03 0.04 0.04 80 1017.8
20260831071003 71 191 0.0 5.0 0.03 0.04 0.04 80 1017.4
20260831070503 71 0 0.0 0.0 0.03 0.04 0.04 80 1017.3
20260831070003 71 160 0.0 4.0 0.03 0.04 0.04 80 1017.3
20260831065503 71 160 0.0 4.0 0.03 0.04 0.04 82 1017.0
20260831065003 70 162 1.0 7.0 0.04 0.04 0.04 82 1016.5
20260831064503 71 171 2.0 7.0 0.04 0.04 0.04 81 1016.5
20260831064003 71 182 1.0 7.0 0.04 0.04 0.04 81 1017.1
20260831063503 71 0 0.0 0.0 0.03 0.03 0.03 80 1017.5
20260831063003 71 0 0.0 0.0 0.03 0.03 0.03 79 1017.3
20260831062503 71 0 0.0 0.0 0.02 0.02 0.02 78 1017.3
20260831062003 72 0 0.0 0.0 0.02 0.02 0.02 78 1017.7
20260831061503 71 33 1.0 7.0 0.01 0.01 0.01 75 1017.7
20260831061003 71 336 3.0 12.0 0.01 0.01 0.01 73 1017.6
20260831060503 72 312 6.0 13.0 0.01 0.01 0.01 74 1017.9
20260831060003 73 299 8.0 15.0 0.01 0.01 0.01 71 1018.4
20260831055503 74 290 7.0 15.0 0.01 0.01 0.01 66 1018.2
20260831055003 77 291 4.0 9.0 0.00 0.00 0.00 64 1018.0
20260831054503 78 298 2.0 8.0 0.00 0.00 0.00 60 1017.4
20260831054003 78 220 1.0 5.0 0.00 0.00 0.00 56 1017.0
20260831053503 78 204 1.0 5.0 0.00 0.00 0.00 56 1017.0
20260831053003 78 312 0.0 3.0 0.00 0.00 0.00 56 1016.9
20260831052503 78 351 0.0 2.0 0.00 0.00 0.00 56 1016.5
20260831052003 78 0 0.0 0.0 0.00 0.00 0.00 56 1016.4
20260831051503 78 0 0.0 0.0 0.00 0.00 0.00 57 1016.2
20260831051003 78 327 1.0 5.0 0.00 0.00 0.00 55 1016.0
20260831050503 78 331 2.0 5.0 0.00 0.00 0.00 55 1016.1
20260831050004 78 339 1.0 4.0 0.00 0.00 0.00 55 1016.0
20260831045503 78 360 0.0 2.0 0.00 0.00 0.00 55 1015.9
20260831045003 78 3 1.0 3.0 0.00 0.00 0.00 54 1015.9
20260831044503 78 354 1.0 5.0 0.00 0.00 0.00 54 1015.7
20260831044003 78 345 2.0 6.0 0.00 0.00 0.00 54 1015.8
20260831043503 79 329 4.0 8.0 0.00 0.00 0.00 53 1015.9
20260831043003 79 321 3.0 8.0 0.00 0.00 0.00 53 1016.1
20260831042503 79 320 3.0 7.0 0.00 0.00 0.00 53 1016.1
20260831042003 79 320 3.0 7.0 0.00 0.00 0.00 53 1016.0
20260831041503 80 325 4.0 7.0 0.00 0.00 0.00 53 1015.7
20260831041003 80 325 3.0 7.0 0.00 0.00 0.00 52 1015.7
20260831040503 80 328 3.0 5.0 0.00 0.00 0.00 52 1015.5
20260831040003 80 332 2.0 5.0 0.00 0.00 0.00 52 1015.4
20260831035503 80 332 1.0 5.0 0.00 0.00 0.00 52 1015.5
20260831035003 80 304 0.0 2.0 0.00 0.00 0.00 53 1015.3
20260831034503 81 311 1.0 4.0 0.00 0.00 0.00 53 1015.5
20260831034003 81 318 2.0 5.0 0.00 0.00 0.00 52 1015.6
20260831033503 80 320 3.0 6.0 0.00 0.00 0.00 53 1015.6
20260831033003 80 328 4.0 9.0 0.00 0.00 0.00 53 1015.5
20260831032503 80 322 5.0 11.0 0.00 0.00 0.00 53 1015.4
20260831032003 80 310 3.0 11.0 0.00 0.00 0.00 54 1015.5
20260831031503 79 306 0.0 8.0 0.00 0.00 0.00 57 1015.5
20260831031003 79 0 0.0 0.0 0.00 0.00 0.00 57 1015.1
20260831030503 80 0 0.0 0.0 0.00 0.00 0.00 56 1015.0
20260831030003 80 0 0.0 0.0 0.00 0.00 0.00 54 1015.0
20260831025503 80 0 0.0 0.0 0.00 0.00 0.00 55 1015.2
20260831025003 80 0 0.0 0.0 0.00 0.00 0.00 54 1015.2
20260831024503 81 0 0.0 0.0 0.00 0.00 0.00 53 1015.2
20260831024003 81 0 0.0 0.0 0.00 0.00 0.00 52 1015.0
20260831023503 81 0 0.0 0.0 0.00 0.00 0.00 53 1014.9
20260831023003 81 0 0.0 0.0 0.00 0.00 0.00 52 1014.8
20260831022503 81 0 0.0 0.0 0.00 0.00 0.00 52 1014.6
20260831022003 82 0 0.0 0.0 0.00 0.00 0.00 53 1014.6
20260831021503 82 0 0.0 0.0 0.00 0.00 0.00 52 1014.6
20260831021003 82 0 0.0 0.0 0.00 0.00 0.00 51 1014.5
20260831020503 83 0 0.0 0.0 0.00 0.00 0.00 52 1014.4
20260831020003 83 0 0.0 0.0 0.00 0.00 0.00 51 1014.3
20260831015503 83 0 0.0 0.0 0.00 0.00 0.00 51 1014.4
20260831015003 84 0 0.0 0.0 0.00 0.00 0.00 52 1014.4
20260831014503 84 0 0.0 0.0 0.00 0.00 0.00 51 1014.4
20260831014003 84 0 0.0 0.0 0.00 0.00 0.00 50 1014.4
20260831013503 84 0 0.0 0.0 0.00 0.00 0.00 48 1014.5
20260831013003 85 0 0.0 0.0 0.00 0.00 0.00 48 1014.4
20260831012503 85 0 0.0 0.0 0.00 0.00 0.00 47 1014.4
20260831012003 85 0 0.0 0.0 0.00 0.00 0.00 48 1014.4
20260831011503 86 0 0.0 0.0 0.00 0.00 0.00 48 1014.2
20260831011003 86 0 0.0 0.0 0.00 0.00 0.00 47 1014.0
20260831010503 87 0 0.0 0.0 0.00 0.00 0.00 47 1014.0
20260831010003 87 0 0.0 0.0 0.00 0.00 0.00 47 1013.9
20260831005503 88 0 0.0 0.0 0.00 0.00 0.00 46 1013.8
20260831005003 89 0 0.0 0.0 0.00 0.00 0.00 45 1013.7
20260831004503 89 0 0.0 0.0 0.00 0.00 0.00 45 1013.7
20260831004003 90 0 0.0 0.0 0.00 0.00 0.00 45 1013.7
20260831003503 90 0 0.0 0.0 0.00 0.00 0.00 44 1013.8
20260831003003 90 0 0.0 0.0 0.00 0.00 0.00 42 1013.9
20260831002503 91 0 0.0 0.0 0.00 0.00 0.00 42 1013.9
20260831002003 91 0 0.0 0.0 0.00 0.00 0.00 41 1013.9
20260831001503 91 0 0.0 0.0 0.00 0.00 0.00 42 1013.8
20260831001003 91 0 0.0 0.0 0.00 0.00 0.00 42 1013.9
20260831000503 91 0 0.0 0.0 0.00 0.00 0.00 40 1013.9
20260831000003 91 0 0.0 0.0 0.00 0.00 0.00 40 1013.9
20260830235503 92 0 0.0 0.0 0.00 0.00 0.00 38 1013.9
20260830235003 93 0 0.0 0.0 0.00 0.00 0.00 37 1013.8
20260830234503 94 0 0.0 0.0 0.00 0.00 0.00 36 1013.7
20260830234003 95 0 0.0 0.0 0.00 0.00 0.00 36 1013.7
20260830233503 95 0 0.0 0.0 0.00 0.00 0.00 35 1013.8
20260830233003 95 0 0.0 0.0 0.00 0.00 0.00 35 1013.7
20260830232503 96 100 0.0 1.0 0.00 0.00 0.00 35 1013.6
20260830232003 96 100 0.0 1.0 0.00 0.00 0.00 34 1013.6
20260830231503 96 111 0.0 1.0 0.00 0.00 0.00 34 1013.7
20260830231003 96 111 0.0 1.0 0.00 0.00 0.00 34 1013.6
20260830230503 97 113 0.0 1.0 0.00 0.00 0.00 35 1013.6
20260830230003 97 115 0.0 1.0 0.00 0.00 0.00 34 1013.5
20260830225503 96 128 0.0 1.0 0.00 0.00 0.00 35 1013.5
20260830225003 95 153 0.0 2.0 0.00 0.00 0.00 34 1013.6
20260830224503 94 159 0.0 2.0 0.00 0.00 0.00 35 1013.5
20260830224003 93 0 0.0 0.0 0.00 0.00 0.00 37 1013.4
20260830223503 93 0 0.0 0.0 0.00 0.00 0.00 39 1013.4
20260830223003 93 0 0.0 0.0 0.00 0.00 0.00 38 1013.4
20260830222503 93 117 0.0 1.0 0.00 0.00 0.00 37 1013.4
20260830222003 94 115 0.0 1.0 0.00 0.00 0.00 35 1013.3
20260830221503 95 115 0.0 1.0 0.00 0.00 0.00 34 1013.2
20260830221003 96 0 0.0 0.0 0.00 0.00 0.00 34 1013.3
20260830220503 97 160 0.0 2.0 0.00 0.00 0.00 33 1013.3
20260830220003 97 119 0.0 3.0 0.00 0.00 0.00 32 1013.3
20260830215503 97 172 1.0 4.0 0.00 0.00 0.00 31 1013.3
20260830215003 97 189 0.0 4.0 0.00 0.00 0.00 34 1013.4
20260830214503 96 0 0.0 0.0 0.00 0.00 0.00 33 1013.4
20260830214003 96 0 0.0 0.0 0.00 0.00 0.00 35 1013.5
20260830213503 96 5 0.0 1.0 0.00 0.00 0.00 35 1013.6
20260830213003 95 5 0.0 1.0 0.00 0.00 0.00 34 1013.6
20260830212503 95 5 0.0 2.0 0.00 0.00 0.00 34 1013.5
20260830212003 95 315 2.0 4.0 0.00 0.00 0.00 35 1013.6
20260830211503 95 329 3.0 6.0 0.00 0.00 0.00 33 1013.6
20260830211003 95 334 3.0 8.0 0.00 0.00 0.00 31 1013.5
20260830210503 95 316 2.0 8.0 0.00 0.00 0.00 32 1013.6
20260830210003 96 208 2.0 7.0 0.00 0.00 0.00 31 1013.7
20260830205503 96 186 4.0 8.0 0.00 0.00 0.00 31 1013.7
20260830205003 96 182 4.0 10.0 0.00 0.00 0.00 30 1013.7
20260830204503 97 177 2.0 10.0 0.00 0.00 0.00 31 1013.7
20260830204003 96 165 1.0 5.0 0.00 0.00 0.00 32 1013.7
20260830203503 96 34 0.0 2.0 0.00 0.00 0.00 34 1013.8
20260830203003 95 57 1.0 4.0 0.00 0.00 0.00 33 1013.9
20260830202503 96 144 1.0 8.0 0.00 0.00 0.00 36 1013.9
20260830202003 95 249 1.0 8.0 0.00 0.00 0.00 33 1013.9
20260830201503 95 280 1.0 4.0 0.00 0.00 0.00 32 1013.9
20260830201003 94 262 2.0 5.0 0.00 0.00 0.00 32 1014.0
20260830200503 94 280 2.0 5.0 0.00 0.00 0.00 33 1014.0
20260830200003 93 324 1.0 4.0 0.00 0.00 0.00 33 1014.0
20260830195503 93 337 0.0 3.0 0.00 0.00 0.00 36 1014.1
20260830195003 94 0 0.0 0.0 0.00 0.00 0.00 34 1014.2
20260830194503 94 0 0.0 0.0 0.00 0.00 0.00 33 1014.1
20260830194003 93 20 1.0 3.0 0.00 0.00 0.00 37 1014.1
20260830193503 93 20 1.0 3.0 0.00 0.00 0.00 33 1014.1
20260830193003 93 20 0.0 3.0 0.00 0.00 0.00 37 1014.1
20260830192503 93 20 0.0 3.0 0.00 0.00 0.00 35 1014.2
20260830192003 93 20 0.0 1.0 0.00 0.00 0.00 36 1014.2
20260830191503 93 17 0.0 2.0 0.00 0.00 0.00 37 1014.2
20260830191003 92 9 0.0 3.0 0.00 0.00 0.00 35 1014.2
20260830190503 92 2 1.0 3.0 0.00 0.00 0.00 33 1014.2
20260830190003 91 11 1.0 3.0 0.00 0.00 0.00 36 1014.3
20260830185503 90 324 2.0 7.0 0.00 0.00 0.00 37 1014.2
20260830185003 90 313 2.0 7.0 0.00 0.00 0.00 37 1014.2
20260830184503 90 334 1.0 6.0 0.00 0.00 0.00 36 1014.3
20260830184003 90 334 1.0 4.0 0.00 0.00 0.00 39 1014.4
20260830183503 89 326 3.0 7.0 0.00 0.00 0.00 40 1014.4
20260830183003 88 332 2.0 7.0 0.00 0.00 0.00 39 1014.4
20260830182503 88 350 1.0 6.0 0.00 0.00 0.00 38 1014.5
20260830182003 88 9 2.0 5.0 0.00 0.00 0.00 40 1014.6
20260830181503 88 12 2.0 5.0 0.00 0.00 0.00 40 1014.6
20260830181003 89 4 2.0 5.0 0.00 0.00 0.00 41 1014.6
20260830180503 88 352 2.0 5.0 0.00 0.00 0.00 43 1014.6
20260830180003 87 342 3.0 9.0 0.00 0.00 0.00 44 1014.7
20260830175503 87 333 3.0 9.0 0.00 0.00 0.00 44 1014.7
20260830175003 88 340 2.0 9.0 0.00 0.00 0.00 41 1014.7
20260830174503 88 328 3.0 8.0 0.00 0.00 0.00 43 1014.7
20260830174003 88 322 5.0 11.0 0.00 0.00 0.00 44 1014.7
20260830173503 88 329 5.0 11.0 0.00 0.00 0.00 44 1015.0
20260830173003 87 342 4.0 10.0 0.00 0.00 0.00 45 1014.9
20260830172503 87 328 5.0 13.0 0.00 0.00 0.00 45 1015.0
20260830172003 87 319 6.0 13.0 0.00 0.00 0.00 45 1015.0
20260830171503 87 325 5.0 10.0 0.00 0.00 0.00 45 1015.1
20260830171003 86 319 5.0 10.0 0.00 0.00 0.00 45 1015.1
20260830170503 86 325 5.0 11.0 0.00 0.00 0.00 46 1015.2
20260830170003 86 333 5.0 11.0 0.00 0.00 0.00 45 1015.2
20260830165503 85 331 5.0 11.0 0.00 0.00 0.00 47 1015.1
20260830165003 84 342 3.0 9.0 0.00 0.00 0.00 49 1015.0
20260830164503 84 336 3.0 9.0 0.00 0.00 0.00 49 1015.0
20260830164003 83 327 4.0 9.0 0.00 0.00 0.00 51 1015.1
20260830163503 82 331 4.0 9.0 0.00 0.00 0.00 51 1015.1
20260830163003 81 331 4.0 8.0 0.00 0.00 0.00 52 1015.3
20260830162503 80 344 4.0 11.0 0.00 0.00 0.00 53 1015.2
20260830162003 80 351 4.0 11.0 0.00 0.00 0.00 54 1014.7
20260830161503 80 333 4.0 8.0 0.00 0.00 0.00 56 1014.9
20260830161004 80 323 4.0 10.0 0.00 0.00 0.00 55 1015.3
20260830160503 79 329 5.0 11.0 0.00 0.00 0.00 55 1015.5
20260830160003 78 332 5.0 11.0 0.00 0.00 0.00 57 1015.4
20260830155503 78 323 5.0 10.0 0.00 0.00 0.00 57 1015.5
20260830155003 78 320 5.0 10.0 0.00 0.00 0.00 58 1015.7
20260830154503 77 316 4.0 9.0 0.00 0.00 0.00 61 1015.6
20260830154003 76 314 3.0 9.0 0.00 0.00 0.00 61 1015.6
20260830153503 76 317 3.0 7.0 0.00 0.00 0.00 62 1015.3
20260830153003 75 327 3.0 8.0 0.00 0.00 0.00 64 1015.2
20260830152503 75 334 3.0 9.0 0.00 0.00 0.00 65 1014.8
20260830152003 74 334 4.0 9.0 0.00 0.00 0.00 65 1014.9
20260830151503 74 326 3.0 9.0 0.00 0.00 0.00 66 1014.9
20260830151003 74 301 3.0 9.0 0.00 0.00 0.00 67 1015.3
20260830150503 73 300 3.0 9.0 0.00 0.00 0.00 68 1015.3
20260830150003 73 315 4.0 10.0 0.00 0.00 0.00 69 1015.1
20260830145503 73 322 4.0 10.0 0.00 0.00 0.00 69 1015.0
20260830145003 72 337 3.0 10.0 0.00 0.00 0.00 69 1014.6
20260830144503 72 346 3.0 10.0 0.00 0.00 0.00 70 1014.2
20260830144003 72 347 3.0 8.0 0.00 0.00 0.00 70 1014.2
20260830143503 72 333 3.0 8.0 0.00 0.00 0.00 72 1014.3
20260830143003 72 324 4.0 9.0 0.00 0.00 0.00 72 1014.7
20260830142503 71 321 4.0 9.0 0.00 0.00 0.00 73 1014.6
20260830142003 71 313 4.0 9.0 0.00 0.00 0.00 74 1014.6
20260830141503 71 312 4.0 9.0 0.00 0.00 0.00 74 1014.6
20260830141003 70 311 3.0 8.0 0.00 0.00 0.00 75 1014.5
20260830140503 70 305 2.0 5.0 0.00 0.00 0.00 76 1014.5
20260830140003 70 300 2.0 7.0 0.00 0.00 0.00 76 1014.4
20260830135503 69 295 3.0 7.0 0.00 0.00 0.00 77 1014.5
20260830135003 69 291 4.0 9.0 0.00 0.00 0.00 78 1014.4
20260830134503 68 288 4.0 9.0 0.00 0.00 0.00 78 1014.5
20260830134003 68 291 3.0 8.0 0.00 0.00 0.00 79 1014.3
20260830133503 67 295 3.0 7.0 0.00 0.00 0.00 81 1014.2
20260830133003 66 292 3.0 7.0 0.00 0.00 0.00 81 1014.2
20260830132503 66 290 2.0 7.0 0.00 0.00 0.00 81 1014.2
20260830132003 66 292 1.0 5.0 0.00 0.00 0.00 82 1014.2
20260830131503 66 289 2.0 6.0 0.00 0.00 0.00 82 1014.1
20260830131003 66 292 2.0 7.0 0.00 0.00 0.00 82 1014.1
20260830130503 66 293 3.0 7.0 0.00 0.00 0.00 82 1013.9
20260830130003 66 293 3.0 6.0 0.00 0.00 0.00 82 1013.8
20260830125503 66 290 2.0 4.0 0.00 0.00 0.00 83 1013.7
20260830125003 65 281 1.0 3.0 0.00 0.00 0.00 83 1013.6
20260830124503 65 282 1.0 4.0 0.00 0.00 0.00 83 1013.5
20260830124003 65 291 2.0 6.0 0.00 0.00 0.00 83 1013.4
20260830123503 65 288 2.0 6.0 0.00 0.00 0.00 84 1013.5
20260830123003 65 273 2.0 5.0 0.00 0.00 0.00 83 1013.6
20260830122503 65 258 1.0 4.0 0.00 0.00 0.00 83 1013.6
20260830122003 65 267 2.0 6.0 0.00 0.00 0.00 83 1013.5
20260830121503 65 278 3.0 7.0 0.00 0.00 0.00 83 1013.6
20260830121003 65 284 3.0 8.0 0.00 0.00 0.00 83 1013.6
20260830120503 65 293 3.0 8.0 0.00 0.00 0.00 83 1013.4
20260830120003 65 303 3.0 8.0 0.00 0.00 0.00 83 1013.2
20260830115503 65 303 2.0 5.0 0.00 0.00 0.00 83 1013.1
20260830115003 65 291 3.0 6.0 0.00 0.00 0.00 83 1013.2
20260830114503 65 278 2.0 6.0 0.00 0.00 0.00 83 1013.3
20260830114003 66 273 2.0 6.0 0.00 0.00 0.00 83 1013.4
20260830113503 66 285 2.0 6.0 0.00 0.00 0.00 83 1013.4
20260830113003 66 287 1.0 5.0 0.00 0.00 0.00 83 1013.3
20260830112503 66 294 2.0 4.0 0.00 0.00 0.00 83 1013.4
20260830112003 66 291 2.0 4.0 0.00 0.00 0.00 83 1013.3
20260830111503 66 277 1.0 4.0 0.00 0.00 0.00 83 1013.3
20260830111003 66 281 2.0 6.0 0.00 0.00 0.00 83 1013.2
20260830110503 66 285 1.0 6.0 0.00 0.00 0.00 83 1013.2
20260830110004 66 285 2.0 6.0 0.00 0.00 0.00 83 1013.3
20260830105503 66 285 1.0 6.0 0.00 0.00 0.00 83 1013.2
20260830105003 66 282 1.0 3.0 0.00 0.00 0.00 82 1013.1
20260830104503 66 283 1.0 4.0 0.00 0.00 0.00 82 1013.2
20260830104003 66 284 2.0 4.0 0.00 0.00 0.00 82 1013.2
20260830103503 66 301 2.0 5.0 0.00 0.00 0.00 82 1013.2
20260830103003 66 308 2.0 7.0 0.00 0.00 0.00 82 1013.2
20260830102503 66 311 2.0 7.0 0.00 0.00 0.00 82 1013.0
20260830102003 66 313 2.0 4.0 0.00 0.00 0.00 82 1013.0
20260830101503 66 311 3.0 8.0 0.00 0.00 0.00 82 1013.0
20260830101003 66 316 3.0 8.0 0.00 0.00 0.00 82 1013.0
20260830100503 67 310 3.0 7.0 0.00 0.00 0.00 82 1012.9
20260830100003 67 298 2.0 6.0 0.00 0.00 0.00 82 1013.0
20260830095503 67 308 3.0 6.0 0.00 0.00 0.00 81 1013.2
20260830095003 67 313 3.0 6.0 0.00 0.00 0.00 81 1013.1
20260830094503 67 313 2.0 6.0 0.00 0.00 0.00 81 1013.1
20260830094003 67 313 2.0 4.0 0.00 0.00 0.00 81 1013.0
20260830093503 67 309 2.0 5.0 0.00 0.00 0.00 81 1013.1
20260830093003 67 304 3.0 8.0 0.00 0.00 0.00 81 1013.1